Wind_Speed
30 31 29 33 33 33 35 37 38 38 39 42 46 47 48 50 51 50 50 52 53 53 51 51 51 53 56 59 60 61 63 64
34 36 33 35 38 40 42 41 39 40 43 47 52 56 57 58 58 53 53 56 57 57 59 60 60 60 62 65 68 68 68 68
37 42 41 40 43 45 48 49 47 47 49 53 58 62 61 62 62 60 60 62 64 65 66 68 67 67 69 73 76 78 78 79
40 43 47 50 53 54 55 57 59 61 62 62 62 64 64 66 67 69 70 71 71 72 75 76 78 80 82 81 82 86 90 90
48 48 49 52 56 58 60 62 65 67 66 67 67 68 69 70 73 76 79 81 81 84 86 87 89 90 90 90 91 92 93 97
49 51 52 55 56 58 61 65 69 70 71 70 71 73 76 78 80 83 86 88 91 93 96 99 101 103 103 102 102 102 103 104
50 52 52 55 59 63 65 67 67 70 72 75 77 79 82 86 90 92 95 97 99 101 102 104 107 110 110 107 104 103 101 101
50 53 56 59 63 65 66 67 72 76 78 81 85 89 93 97 99 101 103 105 106 108 113 112 110 109 108 104 101 100 96 95
53 56 60 63 66 69 72 76 81 83 86 90 94 97 102 105 110 112 113 112 112 115 108 106 104 102 101 97 95 92 92 91
57 61 64 68 73 76 80 84 88 92 93 96 100 102 106 110 113 115 116 115 112 108 107 105 99 95 93 92 88 87 85 84
63 67 72 79 82 84 87 92 95 97 99 102 105 108 112 116 119 121 119 113 109 103 98 95 92 90 88 87 85 84 82 80
70 75 81 85 86 89 92 96 96 98 103 109 113 118 119 119 121 119 116 112 106 95 90 89 88 87 86 85 82 81 80 79
79 83 85 86 89 92 98 102 106 111 114 118 122 121 120 121 117 111 110 102 96 91 89 88 85 84 85 84 80 76 75 74
80 82 86 90 95 101 106 108 112 117 120 122 123 119 120 113 110 106 102 95 92 90 87 85 83 81 79 77 76 75 76 78
81 85 91 98 105 109 111 115 119 122 124 127 125 120 113 106 104 99 97 93 92 90 88 85 82 82 79 77 75 74 74 74
89 96 100 107 112 115 119 125 128 131 133 130 123 117 107 102 97 96 95 94 93 91 88 87 85 80 77 75 73 73 72 70
97 104 109 113 117 122 127 131 132 131 127 122 115 106 102 97 93 91 90 89 87 85 83 81 78 75 71 69 68 66 65 62
107 113 117 123 128 129 130 130 131 123 119 113 106 101 97 94 93 91 89 89 88 84 79 73 70 67 64 63 62 60 56 53
110 117 121 129 133 132 132 133 125 121 111 104 98 96 95 94 92 89 87 85 82 77 72 68 65 63 60 59 56 54 52 48
Wind_Direction
325 321 323 325 327 329 327 327 325 325 324 324 324 322 319 318 318 315 313 314 314 309 307 305 304 301 299 298 294 294 293 293
314 314 315 312 315 319 321 320 320 320 321 318 315 315 314 313 314 311 308 308 308 306 304 302 301 299 299 298 297 295 292 292
308 308 304 304 308 310 314 317 317 314 312 311 312 313 313 310 307 305 303 303 301 298 298 299 298 296 296 296 294 292 291 289
305 305 306 307 308 310 315 317 316 315 314 313 314 313 313 311 310 309 306 303 301 299 297 297 296 296 295 294 294 293 293 292
309 310 311 312 316 319 320 320 318 317 316 316 316 313 311 308 308 305 304 303 301 299 299 298 297 296 295 294 292 291 290 290
310 309 310 312 314 314 313 312 311 311 312 310 308 308 308 308 307 306 304 302 300 299 298 298 298 297 296 294 293 292 290 289
298 302 303 304 306 307 306 308 309 308 307 306 306 305 305 304 302 300 298 297 296 294 293 294 294 294 295 294 292 291 288 287
296 298 300 302 304 305 305 306 308 308 306 306 306 306 304 303 301 298 296 296 297 298 298 299 298 297 295 293 292 289 289 287
298 299 301 304 305 304 305 306 307 307 307 306 306 305 305 303 302 302 302 301 300 299 300 299 297 297 297 296 293 291 289 288
301 304 307 309 310 309 309 309 310 311 309 307 306 303 301 301 302 304 304 304 304 304 304 303 302 301 299 297 295 292 292 291
305 304 306 307 307 309 311 313 311 311 310 307 305 303 303 305 305 306 305 305 305 304 303 302 301 302 302 300 298 295 295 294
307 308 307 307 307 307 310 313 315 315 316 314 311 308 309 309 309 307 306 306 305 305 304 303 303 304 303 303 300 297 294 293
306 307 309 309 310 312 312 313 314 314 313 314 314 312 311 310 307 306 306 306 306 306 305 304 303 302 300 299 298 297 295 292
311 310 311 313 312 311 312 312 313 313 312 312 312 313 312 310 308 308 307 306 306 305 305 304 302 301 299 297 295 293 291 289
311 312 312 312 313 313 313 313 312 312 313 314 314 313 312 310 309 307 306 306 306 306 306 304 302 300 297 295 293 291 290 289
312 313 313 312 313 313 313 314 315 316 316 314 313 312 311 309 307 306 305 305 304 305 304 303 301 298 296 295 294 293 291 289
313 314 314 313 314 314 314 315 315 314 313 312 312 312 310 307 305 305 305 305 306 305 304 301 298 296 294 293 293 292 290 288
315 315 315 315 314 313 313 313 313 314 313 313 313 311 309 309 309 309 307 306 305 303 302 300 299 298 297 295 293 291 289 288
314 316 316 316 318 317 315 313 314 314 314 314 312 312 311 310 309 308 306 306 305 305 303 302 300 298 298 296 293 292 291 292
Height
10651 10646 10642 10638 10635 10633 10630 10625 10620 10616 10612 10608 10602 10597 10592 10587 10582 10576 10571 10566 10562 10558 10554 10550 10547 10541 10535 10530 10525 10522 10517 10515
10648 10643 10639 10635 10631 10628 10625 10621 10616 10612 10607 10602 10596 10590 10584 10578 10573 10567 10561 10554 10548 10543 10538 10534 10531 10525 10520 10513 10508 10503 10498 10495
10646 10640 10634 10630 10627 10623 10618 10613 10608 10604 10599 10593 10586 10578 10571 10564 10560 10555 10549 10543 10536 10529 10522 10517 10512 10508 10502 10494 10487 10481 10476 10472
10644 10637 10630 10624 10619 10613 10607 10600 10594 10589 10584 10578 10572 10564 10558 10550 10540 10532 10526 10522 10516 10510 10503 10496 10490 10486 10480 10474 10467 10456 10445 10438
10634 10627 10620 10613 10603 10594 10588 10582 10576 10570 10564 10557 10550 10545 10538 10531 10524 10516 10506 10498 10493 10485 10477 10470 10464 10458 10452 10448 10443 10437 10429 10417
10621 10615 10611 10605 10599 10593 10586 10579 10571 10563 10556 10548 10541 10533 10525 10518 10508 10500 10488 10477 10466 10458 10449 10440 10430 10422 10417 10414 10408 10403 10396 10387
10616 10612 10607 10600 10593 10586 10579 10570 10561 10552 10544 10533 10525 10517 10508 10500 10490 10481 10470 10459 10447 10436 10428 10418 10405 10394 10382 10377 10372 10364 10357 10349
10609 10604 10597 10590 10583 10575 10567 10559 10549 10540 10529 10516 10504 10493 10483 10473 10463 10452 10441 10428 10418 10406 10391 10380 10368 10356 10346 10338 10332 10323 10315 10312
10599 10591 10585 10577 10569 10560 10551 10542 10532 10521 10509 10498 10485 10471 10458 10444 10428 10416 10405 10393 10382 10370 10361 10345 10334 10322 10308 10300 10292 10285 10279 10272
10585 10577 10569 10560 10550 10540 10530 10519 10507 10496 10485 10473 10460 10446 10431 10415 10398 10384 10371 10360 10346 10331 10317 10304 10293 10285 10274 10264 10258 10249 10243 10237
10569 10561 10552 10541 10530 10520 10510 10499 10489 10477 10463 10449 10436 10420 10406 10389 10370 10353 10338 10326 10315 10306 10290 10274 10263 10254 10245 10237 10227 10217 10211 10204
10553 10543 10534 10524 10514 10504 10491 10479 10467 10455 10440 10423 10406 10387 10372 10355 10336 10318 10302 10291 10280 10273 10262 10249 10237 10227 10218 10208 10198 10190 10182 10175
10539 10529 10517 10506 10493 10480 10468 10455 10442 10427 10410 10392 10372 10355 10339 10324 10306 10291 10276 10263 10250 10242 10233 10222 10213 10204 10196 10187 10178 10168 10160 10153
10520 10509 10499 10487 10474 10461 10447 10431 10415 10398 10381 10363 10346 10328 10311 10293 10275 10260 10247 10235 10224 10214 10206 10197 10187 10179 10171 10163 10155 10147 10139 10132
10505 10493 10480 10465 10450 10434 10418 10402 10386 10370 10353 10332 10314 10298 10281 10265 10249 10234 10220 10209 10198 10188 10179 10170 10161 10153 10146 10138 10130 10122 10113 10105
10484 10471 10459 10443 10426 10409 10392 10373 10353 10335 10318 10302 10287 10270 10254 10240 10225 10212 10198 10187 10175 10166 10155 10144 10134 10127 10119 10112 10103 10095 10087 10080
10461 10445 10430 10415 10399 10382 10363 10345 10329 10315 10295 10277 10260 10243 10227 10213 10202 10189 10175 10163 10151 10140 10129 10120 10111 10103 10097 10090 10081 10072 10065 10061
10440 10423 10406 10390 10374 10357 10341 10322 10301 10285 10268 10250 10230 10215 10199 10185 10171 10159 10146 10135 10124 10115 10105 10096 10087 10079 10072 10066 10058 10051 10046 10042
10416 10399 10383 10366 10349 10329 10308 10290 10270 10251 10236 10223 10206 10191 10175 10160 10148 10134 10121 10109 10097 10086 10078 10071 10063 10056 10050 10043 10037 10032 10028 10026